Location: Oroua River
(40.4333°S, 175.4333°E)
Time: 13:54:46
(UTC+00:00)

Okean 3 - Pass Details

Date: 03 February 2023
Orbit: 570 x 595 km, 82.5° (Epoch: 23 March)

Event Time Altitude Azimuth Distance (km) Brightness Sun altitude
Exits shadow 14:28:53 53° 138° (SE) 723 4.1 -26.9°
Drops below altitude 10° 14:32:18 10° 166° (SSE) 1,916 7.0 -26.6°
Sets 14:34:32 0° 169° (S) 2,827 8.0 -26.4°
